This is the latest recevied weather packets stored in our database for station/object W5CRT. If no packets are shown the sender has not sent any weather packets the latest 10 day(s).
| Time | Temp. | Humidity | Pressure | Rain* | Wind** | Luminosity | Snow |
|---|---|---|---|---|---|---|---|
| 1777738622 | 20.56° C | 38% | 1020 hPa | 0 mm | - | 847 W/m² | - |
| 1777738016 | 21.11° C | 43% | 1020.3 hPa | 0 mm | - | 824 W/m² | - |
| 1777737413 | 20.56° C | 46% | 1020.4 hPa | 0 mm | - | 797 W/m² | - |
| 1777736177 | 19.44° C | 44% | 1020.2 hPa | 0 mm | - | 740 W/m² | - |
| 1777735874 | 19.44° C | 48% | 1019.9 hPa | 0 mm | - | 723 W/m² | - |
| 1777735572 | 19.44° C | 46% | 1020 hPa | 0 mm | - | 706 W/m² | - |
| 1777735269 | 19.44° C | 48% | 1019.9 hPa | 0 mm | - | 689 W/m² | - |
| 1777734966 | 18.89° C | 49% | 1020.2 hPa | 0 mm | - | 671 W/m² | - |
| 1777734663 | 18.89° C | 48% | 1020 hPa | 0 mm | - | 652 W/m² | - |
| 1777734361 | 18.33° C | 51% | 1020 hPa | 0 mm | - | 630 W/m² | - |
| 1777734056 | 18.89° C | 54% | 1020 hPa | 0 mm | - | 612 W/m² | - |
| 1777733753 | 18.33° C | 54% | 1020 hPa | 0 mm | - | 592 W/m² | - |
| 1777733450 | 18.33° C | 54% | 1019.9 hPa | 0 mm | - | 572 W/m² | - |
| 1777733146 | 17.78° C | 52% | 1019.8 hPa | 0 mm | - | 552 W/m² | - |
| 1777732843 | 17.22° C | 54% | 1020 hPa | 0 mm | - | 531 W/m² | - |
| 1777732539 | 17.22° C | 54% | 1020 hPa | 0 mm | - | 508 W/m² | - |
| 1777732238 | 17.22° C | 56% | 1019.7 hPa | 0 mm | - | 484 W/m² | - |
| 1777731934 | 16.67° C | 58% | 1019.6 hPa | 0 mm | - | 463 W/m² | - |
| 1777731631 | 16.67° C | 56% | 1019.9 hPa | 0 mm | - | 437 W/m² | - |
| 1777731329 | 16.67° C | 55% | 1019.8 hPa | 0 mm | - | 415 W/m² | - |
| 1777731026 | 16.67° C | 56% | 1019.8 hPa | 0 mm | - | 392 W/m² | - |
| 1777730725 | 16.11° C | 59% | 1019.7 hPa | 0 mm | - | 371 W/m² | - |
| 1777730421 | 16.11° C | 58% | 1019.4 hPa | 0 mm | - | 348 W/m² | - |
| 1777730116 | 16.11° C | 59% | 1019.7 hPa | 0 mm | - | 328 W/m² | - |
| 1777729813 | 15.56° C | 60% | 1019.5 hPa | 0 mm | - | 311 W/m² | - |
* Rain latest hour (hover to see other rain measurements)
** Current wind speed in m/s (hover to see current wind gust speed)